Weather in Stroykeramika

Russia / Samara Oblast     53°16′13″N   50°23′36″E
В апреле 2022 года жителям России запретили посещать сайт meteo.paraplan.net по решению Генеральной прокуратуры. Аудитория сайта уменьшилась в 10 раз. Владельцы сайта не видят смысла в поддержке погодного сервера в таких условиях. Сайт будет закрыт в октябре.
temp.,
°C
wind,
m/s
gust,
m/s
humid.,
%
clouds,
%
prec.,
mm/h
press.,
hPa
HPBL,
m
25 september, sun
sun2501:00+13wsw3462100 0.0 1012115
04:00+13sse0066100 0.1 101020
07:00+11sse2381100 0.8 1010142
10:00+11e2178100 2.0 1009263
13:00+13wsw2362100 0.1 10071007
16:00+14sse025353 0.4 10061046
19:00+11w3588100 1.7 1006218
22:00+11ssw368695 2.4 1006185
26 september, mon
mon2601:00+10wsw5981100 0.3 1006384
04:00+9sw598373 0.3 1008480
07:00+7sw3787100 0.0 1009291
10:00+10sw4674100 0.1 1010850
13:00+9sw4784100 0.6 1011695
16:00+10sw4780100 0.8 1012745
19:00+9sw488899 0.1 1013282
22:00+9wsw598499 0.7 1014444
27 september, tue
tue2701:00+7wsw489162 0.1 1015219
04:00+8wsw3785100 0.2 1015277
07:00+8wsw488784 0.0 1016295
10:00+11wsw57668 0.0 1016742
13:00+14w574883 0.1 10161806
16:00+13w3549100 0.1 1016825
19:00+11wnw2257100 0.0 101715
22:00+10sw4771100 0.0 1017336
28 september, wed
wed2801:00+10w1173100 0.0 101733
04:00+10s1179100 0.0 101740
07:00+8e118994 0.0 101713
10:00+12e336783 0.0 1017628
13:00+12se4463100 0.0 1016724
16:00+13ese4661100 0.0 1015556
19:00+11ese3766100 0.0 1016309
22:00+11e4970100 0.1 1016535
29 september, thu
thu2901:00+9e51084100 1.4 1015486
04:00+8ene51187100 1.8 1015436
07:00+7ene71281100 0.1 1015417
10:00+7ene71275100 0.1 1015452
13:00+9ene7963100 0.0 1014578
16:00+8ene71280100 1.1 1014518
19:00+8ene61287100 2.3 1015554
22:00+8ene61185100 2.5 1016535